Tracking 28125 objects as of 3-Oct-2023
HD Live streaming from Space Station
objects crossing your sky now

YAOGAN-40 01B

Track YAOGAN-40 01B now!
10-day predictions


NORAD ID: 57832
Int'l Code: 2023-139C
Perigee: 858.3 km
Apogee: 861.3 km
Inclination: 86.0 °
Period: 102.0 minutes
Semi major axis: 7230 km
RCS: Unknown
Launch date: September 10, 2023
Source: People's Republic of China (PRC)
Launch site: Taiyaun Space Center, China (TSC)
Your satellite tracking list
Your tracking list is empty




NASA's NSSDC Master Catalog

Two Line Element Set (TLE):
1 57832U 23139C   23275.82409859  .00000340  00000-0  17574-3 0  9991
2 57832  85.9956 343.2191 0002081  91.0497 269.0924 14.11975559  3218
Source of the keplerian elements: AFSPC